COSMOS 970 DEB, 64993

Orbit data source: Space-Track

COSMOS 970 DEB, 64993 is space debris in LEO originally from a launch on Wed, 21 Dec 1977 UTC launched from the Tyuratam Missile And Space Complex (TTMTR). Debris objects in space refer to the collection of defunct objects orbiting the Earth. Examples of debris include non-operational satellites, rocket bodies, and fragments generated from explosions, collisions, or faulty payload assembly.

Loading next visibility...
Identifier
64993, 1977-121DE
Orbit
LEO
Country
Flag of CISCIS
Related business
Manufacturer
Unknown
Mission
Spacecraft
Bus & Motor
Unknown
Mass
Unknown
Launch date (UTC)
1977-12-21 (48 years ago)
Launch vehicle
Unknown
Launch site
Tyuratam Missile And Space Complex (TTMTR)
Object type
Payload
Rocket body
Debris
Shape & HBR
Unknown shape, 0.1 m
Radar Cross Section
Medium (>0.1 m² and <1 m²)

Expand to show TLE details & history
Last TLE update: 2 days ago

TLE from 2 days ago
0 COSMOS 970 DEB
1 64993U 77121DE  26169.42629726  .00000087  00000-0  16853-3 0  9992
2 64993  65.5956 142.0262 0157890 228.8298 215.1194 13.72750761629745
Epoch: 2026-06-18T10:13Z
TLE epoch observation values (Epoch: 2026-06-18T10:13:52.083Z)
Latitude
64.76234°
Longitude
155.15055°
Altitude
1,095.713 km
Speed
7.263 km/s
True Right ascension
14h 21m 08s
True Declination
64° 38' 08"
Sunlit
Object was in daylight at epoch
Visualization orbit readout
Latitude
Unknown
Longitude
Unknown
Altitude
Unknown
Speed
Unknown
Apparent Right ascension
Unknown
Apparent Declination
Unknown
Sunlit
N/A
Visualization observer readout
Local Sidereal Time
07:11:46
Azimuth
Unknown
Elevation
Unknown
Doppler factor
Unknown
Orbital elements
Apogee altitude
1,104.566 km
Perigee altitude
871.95 km
Semi-major axis
7,366.395 km
Eccentricity
0.01579
Inclination
65.5956°
RAAN
142.0262°
Arg. of periapsis
228.8298°
True anomaly
214.09515°
Mean anomaly
215.1194°
Eccentric anomaly
214.60563°
Mean motion
3.4329 °/min
Orbital period
104.87 mins
BSTAR
0.00016853
Loading maneuver chart data...
Computing Atmospheric mass density...
Loading historical data...
Loading historical data...
Loading historical data...
Loading historical data...
Loading historical data...
Loading historical data...
Loading historical data...

Documentation

Showing up to 5 results
|